STARLINK-2052 (47662 NORAD) Tracking and Keplerian Element Data
This shows tracking and keplerian element data for the satellite.
Feedback or suggestion? Click here.
Element | Value |
Catalog | 47662 |
Name | STARLINK-2052 |
Epoch Orbit | 235 |
Epoch Day | 57.16667824 |
Epoch Year | 2021 |
RAAN | 52.0319 |
Inclination | 53.0493 |
Eccentricity | 0.0007494 |
Argument of Perigee | 274.2128 |
Mean Anonmoly | 341.3983 |
Mean Motion | 15.85941787 |
Decay Rate | 0.00061262 |
L1 | 1 47662U 21012AU 21057.16667824 .00061262 00000-0 24501-3 0 9998 |
L2 | 2 47662 53.0493 52.0319 0007494 274.2128 341.3983 15.85941787 2357 |
Live tracking and technical data element details for STARLINK-2052 (NORAD 47662). STARLINK-2052 can be tracked NOW for your location showing map with azimuth and elevation plus other details from your city location.
Track the satellite on the map from your city or location and see movement details for azimuth, elevation, latitude, longitude, range, height, and movement on the map or in text.
IsCatalogInMostPopularTable: catalog: 47662, numindb: 1
Update: records affected: 1
GetName: 47662 STARLINK-2052
Hit Count: updated at: Fri, 26 Feb 2021 10:17:59 GMT